Probability
0 0 0 0 0 0 0 0 0 0 0 0 0 0 0 0 0 0 0 0 0 0 0 0 0 0 0 0 0 0 0 0 0 0 0 0 0 0 0 1 2 4 5
0 0 0 0 0 0 0 0 0 0 0 0 0 0 0 0 0 0 0 0 0 0 0 0 0 0 0 0 0 0 0 0 0 0 0 0 0 0 0 1 2 3 4
0 0 0 0 0 0 0 0 0 0 0 0 0 0 0 0 0 0 0 0 0 0 0 0 0 0 0 0 0 0 0 0 0 0 0 0 0 0 0 1 3 4 4
0 0 0 0 0 0 0 0 0 0 0 0 0 0 0 0 0 0 0 0 0 0 0 0 0 0 0 0 0 0 0 0 0 0 0 0 1 1 1 1 3 4 4
0 0 0 0 0 0 0 0 0 0 0 0 0 0 0 0 0 0 0 0 0 0 0 0 0 0 0 0 0 0 0 0 0 0 0 0 1 2 2 3 3 4 5
0 0 0 0 0 0 0 0 0 0 0 0 0 0 0 0 0 0 0 0 0 0 0 0 0 0 0 0 0 0 0 0 0 0 0 1 2 3 3 3 3 4 5
0 0 0 0 0 0 0 0 0 0 0 0 0 0 0 0 0 0 0 0 0 0 0 0 0 0 0 0 0 0 0 0 0 0 0 1 2 3 3 3 3 3 4
0 0 0 0 0 0 0 0 0 0 0 0 0 0 0 0 0 0 0 0 0 0 0 0 0 0 0 0 0 0 0 0 0 0 0 0 1 1 3 3 3 3 3
0 0 0 0 0 0 0 0 0 0 0 0 0 0 0 0 0 0 0 0 0 0 0 0 0 0 0 0 0 0 0 0 0 0 0 0 0 1 2 3 3 3 3
0 0 0 0 0 0 0 0 0 0 0 0 0 0 0 0 0 0 0 0 0 0 0 0 0 0 0 0 0 0 0 0 0 0 0 0 0 1 2 3 3 2 1
0 0 0 0 0 0 0 0 0 0 0 0 0 0 0 0 0 0 0 0 0 0 0 0 0 0 0 0 0 0 0 0 0 0 0 0 0 0 1 1 2 1 0
1 0 0 0 0 0 0 0 0 0 0 0 0 0 0 0 0 0 0 0 0 0 0 0 0 0 0 0 0 0 0 0 0 0 0 0 0 0 0 0 0 0 0
1 0 0 0 0 0 0 0 0 0 0 0 0 0 0 0 0 0 0 0 0 0 0 0 0 0 0 0 0 0 0 0 0 0 0 0 0 0 0 0 0 0 0
1 0 0 0 0 0 0 0 0 0 0 0 0 0 0 0 0 0 0 0 0 0 0 0 0 0 0 0 0 0 0 0 0 0 0 0 0 0 0 0 0 0 0
0 0 0 0 0 0 0 0 0 0 0 0 0 0 0 0 0 0 0 0 0 0 0 0 0 0 0 0 0 0 0 0 0 0 0 0 0 0 0 0 0 0 0
0 0 0 0 0 0 0 0 0 0 0 0 0 0 0 0 0 0 0 0 0 0 0 0 0 0 0 0 0 0 0 0 0 0 0 0 0 0 0 0 0 0 0
0 0 0 0 0 0 0 0 0 0 0 0 0 0 0 0 0 0 0 0 0 0 0 0 0 0 0 0 0 0 0 0 0 0 0 0 0 0 0 0 0 0 0
0 0 0 0 0 0 0 0 0 0 0 0 0 0 0 0 0 0 0 0 0 0 0 0 0 0 0 0 0 0 0 0 0 0 0 0 0 0 0 0 0 0 0
0 0 0 0 0 0 0 0 0 0 0 0 0 0 0 0 0 0 0 0 0 0 0 0 0 0 0 0 0 0 0 0 0 0 0 0 0 0 0 0 0 0 0
0 0 0 0 0 0 0 0 0 0 0 0 0 0 0 0 0 0 0 0 0 0 0 0 0 0 0 0 0 0 0 0 0 0 0 0 0 0 0 0 0 0 0
0 0 0 0 0 0 0 0 0 0 0 0 0 0 0 0 0 0 0 0 0 0 0 0 0 0 0 0 0 0 0 0 0 0 0 0 0 0 0 0 0 0 0
0 0 0 0 0 0 0 0 0 0 0 0 0 0 0 0 0 0 0 0 0 0 0 0 0 0 0 0 0 0 0 0 0 0 0 0 0 0 0 0 0 0 0
0 0 0 0 0 0 0 0 0 0 0 0 0 0 0 0 0 0 0 0 0 0 0 0 0 0 0 0 0 0 0 0 0 0 0 0 0 0 0 0 0 0 0
0 0 0 0 0 0 0 0 0 0 0 0 0 0 0 0 0 0 0 0 0 0 0 0 0 0 0 0 0 0 0 0 0 0 0 0 0 0 0 0 0 0 0
0 0 0 0 0 0 0 0 0 0 0 0 0 0 0 0 0 0 0 0 0 0 0 0 0 0 0 0 0 0 0 0 0 0 0 1 1 0 0 0 0 0 0
0 0 0 0 0 0 0 0 0 0 0 0 0 0 0 0 0 0 0 0 0 0 0 0 0 0 0 0 0 0 0 0 0 0 1 2 2 1 0 0 0 0 0
Wind_Speed
2 2 2 2 2 2 2 2 3 4 5 5 5 6 5 6 6 5 5 12 13 13 13 14 13 13 14 14 14 14 14 13 13 13 13 13 12 12 11 11 10 10 10
2 3 2 3 2 2 2 2 4 4 4 4 5 5 5 5 5 5 5 7 12 13 13 13 14 14 14 14 14 14 14 14 14 14 14 14 13 13 12 12 11 11 11
3 3 3 3 2 2 3 3 4 3 4 4 5 5 4 4 4 5 4 4 5 10 13 13 14 14 15 15 15 15 15 15 15 15 15 15 14 14 13 13 12 12 12
4 3 3 2 2 2 3 3 3 3 4 3 3 3 3 3 4 4 4 4 3 4 7 12 13 14 15 15 15 15 15 15 15 15 15 15 15 15 14 14 13 13 12
4 4 2 2 3 3 2 3 4 3 3 3 3 3 3 3 3 4 4 5 4 4 4 7 11 13 14 15 15 15 15 15 15 15 15 14 14 15 14 14 14 14 13
3 3 2 3 3 3 3 3 3 2 2 2 3 4 3 3 3 3 4 4 4 4 4 5 4 7 13 15 15 16 16 16 16 16 16 15 14 14 15 15 15 15 16
3 3 3 3 3 3 3 3 3 2 1 2 3 2 2 3 3 2 3 3 4 4 4 5 4 4 5 13 14 16 16 16 16 16 16 15 14 14 15 15 16 17 17
2 3 3 3 3 3 3 3 2 1 1 1 1 2 1 2 2 2 3 3 3 3 4 6 5 5 5 3 9 14 15 15 16 17 17 16 15 15 15 16 16 17 18
2 2 3 3 3 3 3 2 2 2 1 1 1 2 2 1 1 2 3 4 4 3 3 4 6 5 6 5 5 10 14 15 16 16 17 17 16 16 16 16 16 17 18
1 1 2 3 2 2 3 2 2 2 1 0 1 1 1 3 2 1 2 3 4 4 4 5 5 5 6 5 7 11 14 14 15 16 17 17 17 16 16 16 17 17 18
2 1 2 2 2 2 3 3 2 2 1 1 1 1 1 1 1 3 2 1 2 3 3 4 4 4 5 5 5 9 13 13 15 16 17 17 17 17 17 17 18 18 18
1 2 2 2 2 2 3 2 2 2 1 2 1 1 1 1 1 1 3 3 3 2 3 3 3 3 4 5 8 12 12 13 14 15 16 16 17 17 17 18 18 18 18
2 2 3 2 2 2 3 2 2 1 2 1 1 1 2 1 1 2 3 2 3 2 2 2 2 3 4 4 5 9 11 12 13 14 14 15 16 16 17 17 18 18 18
2 3 3 3 3 3 3 2 1 1 1 2 2 2 1 2 2 2 2 3 3 2 2 2 2 3 3 3 5 6 6 11 12 13 13 14 15 15 16 16 17 17 17
3 4 4 3 3 3 3 3 2 1 2 2 2 2 2 2 2 2 2 2 3 3 2 2 2 2 2 3 4 4 4 9 11 11 12 13 14 14 14 15 15 15 15
3 4 4 4 4 4 3 3 2 1 3 2 2 3 3 2 2 2 2 2 2 3 3 1 2 2 3 4 5 4 5 10 10 10 11 12 13 13 13 14 14 14 14
4 4 4 4 4 4 5 4 2 2 2 2 2 3 3 2 2 2 2 2 3 3 4 2 2 3 3 3 3 3 4 4 4 9 10 11 12 12 13 13 13 13 14
3 4 4 3 3 4 4 4 3 2 2 2 3 3 3 3 3 2 2 3 3 3 4 4 2 2 2 3 2 2 3 4 3 7 9 10 10 11 12 12 12 12 12
3 4 4 4 3 4 4 5 4 3 2 3 3 3 3 4 3 3 3 3 2 3 3 4 2 2 1 2 2 2 3 2 3 5 7 8 9 10 11 11 11 11 11
4 3 3 3 3 3 4 4 4 4 3 3 4 4 3 4 4 3 3 3 3 3 3 3 2 2 1 1 2 1 1 1 2 2 3 5 7 8 9 9 10 10 10
4 3 3 3 3 3 3 3 2 3 4 5 4 4 5 7 7 5 4 3 3 2 2 2 2 2 1 1 1 0 1 1 1 1 1 2 3 3 3 5 7 8 8
3 3 3 3 3 3 5 5 3 2 3 4 4 5 6 6 8 9 10 8 6 3 2 2 2 2 1 1 0 1 1 1 1 1 1 1 2 2 2 2 5 7 7
4 3 3 3 4 4 6 5 4 2 1 2 3 4 4 5 6 5 6 6 5 5 4 3 3 1 1 1 1 1 1 1 1 0 2 1 1 2 1 3 5 6 5
3 3 3 4 4 4 5 5 3 2 1 2 2 3 4 4 4 5 5 4 3 2 2 2 3 2 2 2 2 2 2 2 2 2 3 1 1 0 2 2 3 4 4
3 3 3 4 4 4 5 5 4 2 2 1 2 3 3 4 5 7 5 4 4 2 4 6 6 5 6 7 5 3 2 2 1 0 1 1 1 1 1 1 1 2 3
4 3 3 4 4 4 5 6 4 2 2 2 2 3 4 5 6 6 4 4 4 3 3 3 3 3 2 3 4 3 2 2 1 0 1 1 0 1 1 1 0 0 0
Wind_Direction
109 100 99 90 87 82 78 64 67 65 61 55 54 63 69 73 87 89 73 68 63 60 59 56 54 52 50 47 44 42 42 41 39 37 35 32 31 31 32 32 34 32 35
110 99 82 75 71 75 72 82 81 77 69 64 58 58 60 68 81 96 97 76 69 66 60 56 54 53 50 48 47 46 44 42 40 37 35 34 34 34 35 38 41 39 41
102 100 93 82 69 78 77 70 73 70 80 77 67 63 60 61 74 80 94 102 85 70 66 61 56 53 50 49 49 47 44 42 41 39 37 36 36 37 38 41 43 42 43
103 93 91 97 95 85 76 81 77 71 72 74 69 64 66 59 65 74 80 87 94 87 72 70 61 54 50 49 48 46 45 43 41 38 37 37 37 39 42 44 44 44 43
91 94 88 95 88 77 69 78 74 81 89 89 93 78 69 58 47 57 65 71 75 90 91 78 69 58 52 47 45 45 45 44 42 39 38 39 40 41 44 46 46 45 43
95 100 102 86 84 87 74 76 82 75 89 86 85 85 83 82 59 50 59 62 52 68 82 90 81 62 55 47 44 43 43 44 42 41 41 41 43 45 48 48 48 47 44
103 102 94 87 80 92 97 95 90 87 82 96 88 80 67 71 81 65 61 67 54 51 63 68 70 70 58 49 43 42 40 41 42 42 40 41 45 50 50 49 49 48 47
73 109 119 116 106 95 90 96 91 73 29 83 108 117 99 44 32 68 76 76 67 51 54 68 66 64 66 55 43 43 39 38 41 42 40 42 48 54 54 52 52 51 50
37 78 111 113 111 117 120 121 114 104 40 356 57 98 118 129 99 31 62 79 74 62 55 61 67 65 68 58 43 38 41 38 41 42 43 45 51 55 55 53 53 53 52
104 83 93 108 117 111 124 138 124 114 90 15 18 37 85 130 134 113 27 66 77 68 61 66 60 60 65 65 57 48 45 42 41 42 45 47 51 53 54 54 55 54 53
112 113 109 110 110 110 116 100 87 71 68 63 69 64 37 33 107 132 134 106 67 60 67 72 72 63 64 67 62 52 49 45 45 45 45 47 50 52 54 55 54 54 54
142 142 133 130 123 119 115 113 111 99 64 44 35 62 93 81 39 101 126 133 116 95 76 70 78 75 72 67 65 61 55 51 50 49 49 49 49 51 52 53 53 53 53
151 159 139 136 128 127 123 110 107 118 109 85 48 37 36 60 68 77 107 126 123 124 92 71 85 90 88 83 75 69 60 58 54 53 53 53 52 52 52 53 53 52 51
148 146 134 131 133 141 135 122 110 107 117 112 100 82 56 48 47 74 102 116 114 96 88 90 69 75 88 93 87 79 68 66 62 57 55 55 54 54 53 53 52 52 50
150 146 146 150 154 144 136 132 125 124 92 85 95 93 83 70 51 54 72 103 124 126 110 100 81 79 94 98 97 91 86 75 70 65 61 59 58 55 54 54 53 51 50
145 145 159 165 162 155 141 127 114 111 113 106 97 84 73 82 73 59 59 50 75 119 122 111 107 121 96 104 107 106 97 88 77 74 68 64 62 59 58 57 54 52 50
165 159 169 167 162 154 145 133 130 114 117 133 116 107 99 89 89 72 66 63 61 85 110 107 99 106 98 98 99 115 118 102 88 85 79 72 68 63 61 59 56 52 50
167 160 154 150 145 146 141 139 140 134 130 118 113 117 118 106 89 75 77 81 82 87 116 119 108 104 110 123 121 118 120 119 110 99 93 85 78 69 63 59 56 53 50
165 154 151 157 155 149 142 140 145 147 133 114 107 107 113 113 109 97 91 86 85 87 99 118 121 106 98 105 94 83 95 108 117 116 108 96 90 80 69 61 56 53 50
155 158 157 155 150 145 139 139 143 146 135 117 104 94 91 101 108 111 105 101 100 94 94 106 114 109 94 83 95 97 72 77 91 101 108 113 106 93 79 68 61 55 50
145 147 141 126 120 118 118 119 129 137 134 124 120 111 96 96 93 95 97 95 99 103 107 106 111 96 81 63 73 139 125 121 75 72 101 121 114 94 84 71 67 60 52
131 123 127 128 123 113 104 94 86 110 133 140 141 134 128 118 108 101 94 87 89 105 118 116 119 126 138 142 135 108 128 106 41 360 75 88 121 121 125 101 81 75 62
130 131 134 124 122 122 121 110 92 77 85 114 127 129 131 131 132 128 112 99 80 80 98 122 119 140 147 171 144 113 108 110 138 162 82 43 62 93 114 107 104 91 77
137 139 138 135 131 137 140 135 123 117 99 112 129 136 136 136 137 133 129 121 110 87 107 110 122 119 94 81 98 135 153 117 87 57 78 81 4 77 119 112 121 110 96
137 140 140 140 141 148 158 154 142 137 131 115 98 103 122 127 128 132 134 136 131 120 100 106 109 102 86 75 71 67 62 94 88 12 37 90 335 2 92 143 171 145 119
143 143 144 147 151 153 165 166 161 155 145 135 115 102 101 121 127 136 146 143 144 153 139 126 111 100 101 87 78 87 102 112 122 114 334 90 343 43 3 345 90 108 32